Location: Clarion
(42.7316°N, 93.7330°W)
Time: 01:56:48
(UTC+00:00)

Resurs 1-4 Rocket - Pass Details

Date: 22 April 2026
Orbit: 798 x 812 km, 98.8° (Epoch: 20 May)

Event Time Altitude Azimuth Distance (km) Brightness Sun altitude
Rises 09:27:39 0° 9° (N) 3,340 6.1 -19.3°
Reaches altitude 10° 09:30:02 10° 5° (N) 2,403 5.2 -19.0°
Maximum altitude 09:35:12 55° 289° (WNW) 968 2.3 -18.2°
Enters shadow 09:37:30 31° 228° (SW) 1,373 2.7 -17.9°
